Location: Napoli
(40.8639°N, 14.2562°E)
Time: 07:48:17
(UTC+02:00)

ISS - Pass Details

Date: 12 October 2017
Orbit: 401 x 408 km, 51.6° (Epoch: 23 October)

Event Time Altitude Azimuth Distance (km) Brightness Sun altitude
Rises 20:59:22 0° 297° (WNW) 2,327 1.2 -29.4°
Reaches altitude 10° 21:01:37 10° 285° (WNW) 1,465 -0.1 -29.8°
Enters shadow 21:02:16 14° 278° (W) 1,242 -0.6 -29.9°
